Weather History for Dickinson, ND

Change the Weather History Date:

Tuesday, May 6, 2014

  Actual Average Record
Temperature  
Mean Temperature 50 °F 50 °F  
Max Temperature 54 °F 63 °F 89 °F (1992)
Min Temperature 45 °F 37 °F 14 °F (1929)
Degree Days  
Heating Degree Days 15 15  
Month to date heating degree days 111 97  
Since 1 July heating degree days 8724 8159  
Cooling Degree Days 0 0  
Month to date cooling degree days 0 0  
Year to date cooling degree days 0 1  
Moisture  
Dew Point 44 °F    
Average Humidity 80    
Maximum Humidity 93    
Minimum Humidity 66    
Precipitation  
Precipitation 0.04 in 0.07 in 0.59 in (1995)
Month to date precipitation 0.08 0.41  
Year to date precipitation 1.94 3.20  
Sea Level Pressure  
Sea Level Pressure 29.74 in    
Wind  
Wind Speed 9 mph (NE)    
Max Wind Speed 15 mph    
Max Gust Speed 18 mph    
Visibility 7 miles    
Events Rain    
T = Trace of Precipitation, MM = Missing Value Source: NWS Daily Summary

Daily Weather History Graph

Daily Weather History Graph

Search for Another Location

Airport:

Trip Planner

Search our weather history database for the weather conditions in past years. The results will help you decide how hot, cold, wet, or windy it might be!

Date:

Astronomy

May. 06, 2014 Rise Set
Actual Time 5:28 AM MDT 8:07 PM MDT
Civil Twilight 4:54 AM MDT 8:42 PM MDT
Nautical Twilight 4:10 AM MDT 9:26 PM MDT
Astronomical Twilight 3:20 AM MDT 10:17 PM MDT
Moon 11:51 AM MDT (5/6) 1:24 AM MDT (5/6)
Length of Visible Light 15h 48m
Length of Day
14h 39m
Waxing Crescent, 46% of the Moon is Illuminated
May 6
Waxing Crescent
May 6
First Quarter
May 14
Full
May 21
Last Quarter
May 28
New

Hourly Weather History & Observations

Time (MDT) Temp. Windchill Dew Point Humidity Pressure Visibility Wind Dir Wind Speed Gust Speed Precip Events Conditions
12:13 AM 48.0 °F - 44.1 °F 86% 29.78 in 10.0 mi NNE 13.8 mph - 0.00 in   Overcast
12:38 AM 48.0 °F - 44.1 °F 86% 29.78 in 7.0 mi NNE 16.1 mph - 0.02 in Rain Light Rain
12:56 AM 46.9 °F - 44.1 °F 90% 29.77 in 5.0 mi NE 15.0 mph - 0.04 in Rain Rain
5:56 AM 46.0 °F 41.0 °F 44.1 °F 93% 29.75 in 7.0 mi East 10.4 mph - N/A   Overcast
6:08 AM 46.0 °F 41.9 °F 44.1 °F 93% 29.75 in 6.0 mi East 8.1 mph - N/A   Overcast
6:21 AM 45.0 °F 39.7 °F 43.0 °F 93% 29.75 in 4.0 mi ENE 10.4 mph - N/A   Overcast
6:31 AM 45.0 °F 39.7 °F 43.0 °F 93% 29.75 in 2.5 mi ENE 10.4 mph - N/A   Overcast
6:56 AM 45.0 °F 40.1 °F 43.0 °F 93% 29.75 in 2.0 mi ENE 9.2 mph - N/A   Overcast
7:16 AM 45.0 °F 38.9 °F 43.0 °F 93% 29.74 in 2.0 mi East 12.7 mph - N/A   Overcast
7:25 AM 45.0 °F 38.9 °F 43.0 °F 93% 29.74 in 1.8 mi East 12.7 mph - N/A   Overcast
7:32 AM 45.0 °F 38.9 °F 43.0 °F 93% 29.74 in 2.0 mi East 12.7 mph - N/A   Overcast
7:56 AM 46.0 °F 40.2 °F 44.1 °F 93% 29.74 in 3.0 mi East 12.7 mph - N/A   Overcast
8:56 AM 46.0 °F 40.6 °F 43.0 °F 89% 29.74 in 4.0 mi East 11.5 mph - N/A   Overcast
9:29 AM 46.0 °F 41.9 °F 44.1 °F 93% 29.73 in 6.0 mi East 8.1 mph - N/A   Overcast
9:56 AM 46.9 °F - 44.1 °F 90% 29.73 in 7.0 mi ENE 6.9 mph - N/A   Overcast
10:56 AM 48.0 °F - 43.0 °F 83% 29.73 in 9.0 mi East 4.6 mph - N/A   Overcast
11:56 AM 48.9 °F - 44.1 °F 83% 29.74 in 10.0 mi NNE 3.5 mph - N/A   Overcast
12:32 PM 48.9 °F - 43.0 °F 80% 29.73 in 10.0 mi NNE 8.1 mph - N/A   Overcast
12:56 PM 50.0 °F - 44.1 °F 80% 29.74 in 10.0 mi NNE 6.9 mph - N/A   Overcast
2:56 PM 51.1 °F - 44.1 °F 77% 29.73 in 10.0 mi NNE 10.4 mph - N/A   Overcast
3:24 PM 52.0 °F - 44.1 °F 74% 29.70 in 10.0 mi North 11.5 mph - N/A   Overcast
3:56 PM 53.1 °F - 44.1 °F 71% 29.71 in 10.0 mi North 11.5 mph - N/A   Overcast
4:56 PM 53.1 °F - 43.0 °F 69% 29.72 in 7.0 mi NNE 10.4 mph - N/A   Overcast
5:56 PM 54.0 °F - 44.1 °F 69% 29.72 in 9.0 mi NNE 10.4 mph - N/A   Overcast
6:56 PM 52.0 °F - 44.1 °F 74% 29.73 in 10.0 mi NE 9.2 mph - 0.00 in   Mostly Cloudy
7:56 PM 50.0 °F - 45.0 °F 83% 29.74 in 8.0 mi North 8.1 mph - N/A   Mostly Cloudy
8:56 PM 48.0 °F - 44.1 °F 86% 29.75 in 8.0 mi North 5.8 mph - N/A   Mostly Cloudy
9:56 PM 48.0 °F - 44.1 °F 86% 29.77 in 9.0 mi North 6.9 mph - N/A   Overcast
10:56 PM 48.0 °F - 44.1 °F 86% 29.77 in 9.0 mi North 6.9 mph - N/A   Overcast
11:30 PM 48.0 °F - 45.0 °F 89% 29.75 in 9.0 mi North 6.9 mph - N/A   Overcast
11:39 PM 48.0 °F - 45.0 °F 89% 29.75 in 8.0 mi North 5.8 mph - N/A   Overcast